Brooksville, FL

2:15 PM EST on December 10, 2016 (GMT -0500)
Hernando County

Weather History for KBKV - June, 2013

Change the Weather History Date:

Saturday, June 29, 2013

  Actual Average Record
Temperature  
Mean Temperature 80 °F -  
Max Temperature 86 °F 88 °F 100 °F (1998)
Min Temperature 75 °F 68 °F 66 °F (2012)
Cooling Degree Days 14    
Growing Degree Days 30 (Base 50)    
Moisture  
Dew Point 74 °F    
Average Humidity 84    
Maximum Humidity 94    
Minimum Humidity 65    
Precipitation  
Precipitation 0.12 in - - ()
Sea Level Pressure  
Sea Level Pressure 29.86 in    
Wind  
Wind Speed 6 mph (SSW)    
Max Wind Speed 14 mph    
Max Gust Speed 22 mph    
Visibility 9 miles    
Events Rain    
Averages and records for this station are not official NWS values.
T = Trace of Precipitation, MM = Missing Value Source: NWS Daily Summary

Daily Weather History Graph

Daily Weather History Graph

Search for Another Location

Airport or City:

Trip Planner

Search our weather history database for the weather conditions in past years. The results will help you decide how hot, cold, wet, or windy it might be!

Date:

Astronomy

Jun. 29, 2013 Rise Set
Actual Time 6:35 AM EDT 8:31 PM EDT
Civil Twilight 6:08 AM EDT 8:58 PM EDT
Nautical Twilight 5:35 AM EDT 9:30 PM EDT
Astronomical Twilight 5:01 AM EDT 10:05 PM EDT
Moon 12:33 AM EDT (6/29) 1:08 PM EDT (6/29)
Length of Visible Light 14h 49m
Length of Day
13h 56m
Waning Gibbous, 56% of the Moon is Illuminated
Jun 29
Waning Gibbous
Jun 30
Last Quarter
Jul 8
New
Jul 15
First Quarter
Jul 22
Full

Hourly Weather History & Observations

Time (EDT) Temp. Heat Index Dew Point Humidity Pressure Visibility Wind Dir Wind Speed Gust Speed Precip Events Conditions
12:53 AM 77.0 °F - 75.0 °F 94% 29.87 in 10.0 mi South 5.8 mph - N/A   Clear
1:53 AM 77.0 °F - 75.0 °F 94% 29.86 in 10.0 mi South 4.6 mph - N/A   Clear
2:53 AM 77.0 °F - 75.0 °F 94% 29.85 in 10.0 mi SSW 5.8 mph - N/A   Clear
3:53 AM 77.0 °F - 75.0 °F 94% 29.86 in 10.0 mi South 5.8 mph - N/A   Clear
4:53 AM 75.9 °F - 73.9 °F 94% 29.86 in 10.0 mi South 3.5 mph - N/A   Clear
5:53 AM 75.9 °F - 73.9 °F 94% 29.85 in 10.0 mi South 3.5 mph - N/A   Clear
6:53 AM 75.9 °F - 73.9 °F 94% 29.86 in 10.0 mi South 3.5 mph - N/A   Partly Cloudy
7:53 AM 78.1 °F - 75.0 °F 90% 29.86 in 10.0 mi SSE 5.8 mph - N/A   Clear
8:53 AM 80.1 °F 84.2 °F 73.0 °F 79% 29.86 in 10.0 mi South 13.8 mph 21.9 mph 0.00 in Rain Light Rain
9:38 AM 78.8 °F - 73.4 °F 83% 29.88 in 10.0 mi WSW 3.5 mph - 0.00 in   Mostly Cloudy
9:45 AM 78.8 °F - 73.4 °F 83% 29.88 in 10.0 mi Calm Calm - 0.00 in   Scattered Clouds
9:53 AM 79.0 °F - 73.9 °F 84% 29.87 in 10.0 mi South 3.5 mph - 0.00 in   Partly Cloudy
10:53 AM 81.0 °F 87.3 °F 75.9 °F 85% 29.88 in 10.0 mi Calm Calm - N/A   Scattered Clouds
11:28 AM 78.8 °F - 75.2 °F 89% 29.90 in 3.0 mi South 13.8 mph 19.6 mph 0.07 in Rain Heavy Rain
11:30 AM 78.8 °F - 75.2 °F 89% 29.90 in 1.8 mi South 9.2 mph 19.6 mph 0.12 in Rain Heavy Rain
11:37 AM 78.8 °F - 75.2 °F 89% 29.90 in 2.0 mi South 8.1 mph - 0.12 in Rain Light Rain
11:45 AM 80.6 °F 86.2 °F 75.2 °F 84% 29.90 in 10.0 mi South 9.2 mph - 0.12 in   Scattered Clouds
11:53 AM 80.1 °F 84.5 °F 73.9 °F 81% 29.90 in 10.0 mi SSW 10.4 mph - 0.12 in   Partly Cloudy
12:53 PM 82.0 °F 88.6 °F 75.0 °F 79% 29.87 in 10.0 mi SSW 11.5 mph - N/A   Clear
1:53 PM 84.9 °F 92.1 °F 73.9 °F 69% 29.87 in 10.0 mi WSW 10.4 mph - N/A   Clear
2:53 PM 84.9 °F 94.1 °F 75.9 °F 74% 29.85 in 10.0 mi SSW 13.8 mph - N/A   Clear
3:15 PM 82.4 °F 88.2 °F 73.4 °F 74% 29.85 in 10.0 mi NW 4.6 mph - N/A   Mostly Cloudy
3:40 PM 84.2 °F 89.6 °F 71.6 °F 66% 29.84 in 10.0 mi West 10.4 mph - 0.00 in   Scattered Clouds
3:53 PM 84.0 °F 89.0 °F 71.1 °F 65% 29.84 in 10.0 mi WSW 10.4 mph 18.4 mph 0.00 in   Clear
4:53 PM 84.0 °F 91.2 °F 73.9 °F 72% 29.82 in 10.0 mi SW 9.2 mph - N/A   Scattered Clouds
5:53 PM 82.9 °F 88.8 °F 73.0 °F 72% 29.82 in 10.0 mi SW 9.2 mph - N/A   Clear
6:53 PM 82.9 °F 89.4 °F 73.9 °F 74% 29.82 in 10.0 mi SSW 8.1 mph - N/A   Clear
7:53 PM 81.0 °F 86.7 °F 75.0 °F 82% 29.83 in 10.0 mi South 6.9 mph - N/A   Scattered Clouds
8:53 PM 80.1 °F 85.1 °F 75.0 °F 85% 29.84 in 10.0 mi SSE 5.8 mph - N/A   Partly Cloudy
9:53 PM 78.1 °F - 75.0 °F 90% 29.84 in 10.0 mi SE 5.8 mph - N/A   Clear
10:53 PM 77.0 °F - 75.0 °F 94% 29.86 in 10.0 mi SSE 6.9 mph - N/A   Clear
11:53 PM 77.0 °F - 75.0 °F 94% 29.86 in 10.0 mi SSE 6.9 mph - N/A   Clear